DELTA 1 DEB, 10765

Orbit data source: Space-Track

DELTA 1 DEB, 10765 is space debris in SSO originally from a launch on Thu, 29 Jul 1976 UTC launched from the Air Force Western Test Range (AFWTR). Debris objects in space refer to the collection of defunct objects orbiting the Earth. Examples of debris include non-operational satellites, rocket bodies, and fragments generated from explosions, collisions, or faulty payload assembly.

Loading next visibility...
Identifier
10765, 1976-077BN
Orbit
SSO
Country
Flag of USUS
Related business
Manufacturer
Unknown
Mission
Spacecraft
Bus & Motor
Unknown
Mass
Unknown
Launch date (UTC)
1976-07-29 (50 years ago)
Launch vehicle
Unknown
Launch site
Air Force Western Test Range (AFWTR)
Object type
Payload
Rocket body
Debris
Shape & HBR
Unknown shape, 0.5 m
Radar Cross Section
Medium (>0.1 m² and <1 m²)

Expand to show TLE details & history
Last TLE update: 20 hours ago

TLE from 20 hours ago
0 DELTA 1 DEB
1 10765U 76077BN  26039.54114429 -.00000039  00000-0  31674-4 0  9994
2 10765 102.0063 244.0787 0130579 232.9152 184.8711 12.16524099200915
Epoch: 2026-02-08T12:59Z
TLE epoch observation values (Epoch: 2026-02-08T12:59:14.866Z)
Latitude
55.82374°
Longitude
-107.5453°
Altitude
1,720.708 km
Speed
6.976 km/s
True Right ascension
15h 03m 39s
True Declination
55° 40' 58"
Sunlit
Object was in daylight at epoch
Visualization orbit readout
Latitude
Unknown
Longitude
Unknown
Altitude
Unknown
Speed
Unknown
Apparent Right ascension
Unknown
Apparent Declination
Unknown
Sunlit
N/A
Visualization observer readout
Local Sidereal Time
11:07:22
Azimuth
Unknown
Elevation
Unknown
Doppler factor
Unknown
Orbital elements
Apogee altitude
1,709.569 km
Perigee altitude
1,501.075 km
Semi-major axis
7,983.459 km
Eccentricity
0.01306
Inclination
102.0063°
RAAN
244.0787°
Arg. of periapsis
232.9152°
True anomaly
184.74608°
Mean anomaly
184.8711°
Eccentric anomaly
184.80839°
Mean motion
3.04268 °/min
Orbital period
118.32 mins
BSTAR
0.000031674
Loading maneuver chart data...
Computing Atmospheric mass density...
Loading historical data...
Loading historical data...
Loading historical data...
Loading historical data...
Loading historical data...
Loading historical data...
Loading historical data...

Documentation

Showing up to 5 results
|